FW1466 Weather Reports


Display with metric or nautical units.
time (UTC)temp
F
wind
direction
speed
MPH
gust
MPH
rain 1hr
in
rain 24hr
in
rain mn
in
humidity
%
barometer
mb
20260503070111 44 234 0.0 0.0 0.00 0.00 0.00 68 1016.0
20260503060106 44 235 0.0 0.0 0.00 0.00 0.00 66 1016.3
20260503054543 44 235 0.0 0.0 0.00 0.00 0.00 66 1016.6
20260503053039 44 235 0.0 0.0 0.00 0.00 0.00 66 1016.7
20260503051541 44 235 0.0 0.0 0.00 0.00 0.00 66 1016.8
20260503050037 44 235 0.0 0.0 0.00 0.00 0.00 66 1017.0
20260503044540 44 235 0.0 0.0 0.00 0.00 0.00 68 1017.0
20260503043040 44 235 0.0 0.0 0.00 0.00 0.00 69 1017.2
20260503041534 43 235 0.0 0.0 0.00 0.00 0.00 69 1017.2
20260503040035 43 235 0.0 0.0 0.00 0.00 0.00 69 1017.3
20260503034532 43 235 0.0 0.0 0.00 0.00 0.00 70 1017.4
20260503033036 43 235 0.0 0.0 0.00 0.00 0.00 71 1017.4
20260503031532 43 235 0.0 0.0 0.00 0.00 0.00 71 1017.4
20260503030031 44 235 0.0 0.0 0.00 0.00 0.00 70 1017.5
20260503024531 44 235 0.0 0.0 0.00 0.00 0.00 69 1017.3
20260503023030 45 235 0.0 0.0 0.00 0.00 0.00 67 1017.4
20260503021530 46 235 0.0 0.0 0.00 0.00 0.00 67 1017.4
20260503020030 46 235 0.0 0.0 0.00 0.00 0.00 65 1017.4
20260503014531 47 235 0.0 0.0 0.00 0.00 0.00 63 1017.3
20260503013038 48 235 0.0 0.0 0.00 0.00 0.00 62 1017.3
20260503011534 50 235 0.0 0.0 0.00 0.00 0.00 58 1017.2
20260503010028 51 235 0.0 0.0 0.00 0.00 0.00 54 1017.3
20260503004527 52 235 0.0 0.0 0.00 0.00 0.00 53 1017.3
20260503003027 53 302 0.0 2.0 0.00 0.00 0.00 52 1017.2
20260503001526 53 303 0.0 2.0 0.00 0.00 0.00 49 1017.3
20260503000024 54 302 0.0 3.0 0.00 0.00 0.00 49 1017.5
20260502234523 54 302 0.0 4.0 0.00 0.00 0.00 46 1017.5
20260502233022 55 303 2.0 6.0 0.00 0.00 0.00 44 1017.6
20260502231522 55 274 1.0 4.0 0.00 0.00 0.00 46 1017.6
20260502230025 56 264 2.0 7.0 0.00 0.00 0.00 44 1017.7
20260502224519 56 319 3.0 5.0 0.00 0.00 0.00 43 1017.8
20260502223019 55 334 1.0 8.0 0.00 0.00 0.00 46 1017.8
20260502221518 56 316 2.0 6.0 0.00 0.00 0.00 45 1017.8
20260502220018 55 309 2.0 5.0 0.00 0.00 0.00 45 1017.9
20260502214524 55 292 4.0 9.0 0.00 0.00 0.00 43 1018.0
20260502213016 55 292 3.0 8.0 0.00 0.00 0.00 44 1018.1
20260502211524 55 342 2.0 6.0 0.00 0.00 0.00 44 1018.2
20260502210025 55 338 1.0 6.0 0.00 0.00 0.00 45 1018.3
20260502204510 54 306 0.0 4.0 0.00 0.00 0.00 49 1018.4
20260502203008 54 167 2.0 5.0 0.00 0.00 0.00 46 1018.5
20260502201511 55 292 2.0 10.0 0.00 0.00 0.00 44 1018.9
20260502200005 55 87 2.0 7.0 0.00 0.00 0.00 48 1019.0
20260502194501 53 315 2.0 6.0 0.00 0.00 0.00 47 1019.1
20260502193113 54 315 2.0 5.0 0.00 0.00 0.00 50 1019.4
20260502191556 53 322 2.0 5.0 0.00 0.00 0.00 54 1019.6
20260502190056 51 307 3.0 8.0 0.00 0.00 0.00 54 1019.8
20260502184554 52 295 1.0 6.0 0.00 0.00 0.00 48 1019.9
20260502183057 53 28 3.0 9.0 0.00 0.00 0.00 47 1019.9
20260502181552 52 35 4.0 9.0 0.00 0.00 0.00 49 1020.1
20260502163042 50 341 2.0 10.0 0.00 0.00 0.00 55 1021.0
20260502161537 50 326 1.0 8.0 0.00 0.00 0.00 54 1021.2
20260502151527 48 336 3.0 9.0 0.00 0.00 0.00 52 1021.4
20260502123041 35 82 0.0 1.0 0.00 0.00 0.00 96 1021.0
20260502121534 33 82 0.0 0.0 0.00 0.00 0.00 97 1021.1
20260502114544 30 82 0.0 0.0 0.00 0.00 0.00 96 1020.6
20260502113031 30 82 0.0 0.0 0.00 0.00 0.00 95 1020.4
20260502111528 29 82 0.0 0.0 0.00 0.00 0.00 95 1020.4
20260502110026 29 82 0.0 0.0 0.00 0.00 0.00 94 1020.5
20260502104526 29 82 0.0 0.0 0.00 0.00 0.00 94 1020.4
20260502103022 30 82 0.0 0.0 0.00 0.00 0.00 94 1020.3
20260502101522 30 82 0.0 0.0 0.00 0.00 0.00 94 1020.3
20260502091519 30 82 0.0 0.0 0.00 0.00 0.00 93 1020.3
20260502071510 32 82 0.0 0.0 0.00 0.00 0.00 90 1020.3